When you browse on this site, cookies collect data to enhance your experience and personalize the content and advertising you see.
Visit our Privacy Policy to learn more. By continuing to use the site, you agree to this use of cookies and data.
  • In Österreich
  • Länderverzeichnis
  • Für 7 Tage
  • Wassertemperatur
  • Satellitenkarten
  • Wetterkarte
  • News
  • Widgets
  • user-avatar
    Anmelden

    Stündliche Wetter Naftalan

    Heute, 20 März, Mittwoch

    Zeit Temperatur Niederschläge Wind Luftdruck Luftfeuchtigkeit
    00:00 +7°C° 0.7 mm 6 m/S 770 mmHg 83%
    01:00 +7°C° 0.8 mm 5 m/S 770 mmHg 84%
    02:00 +7°C° 0.8 mm 5 m/S 770 mmHg 84%
    03:00 +6°C° 0 mm 4 m/S 769 mmHg 86%
    04:00 +6°C° 0.5 mm 4 m/S 769 mmHg 87%
    05:00 +6°C° 0.5 mm 4 m/S 769 mmHg 87%
    06:00 +6°C° 0.5 mm 4 m/S 769 mmHg 88%
    07:00 +7°C° 0.5 mm 4 m/S 769 mmHg 87%
    08:00 +7°C° 0.5 mm 4 m/S 770 mmHg 85%
    09:00 +7°C° 0 mm 4 m/S 770 mmHg 85%
    10:00 +8°C° 0.1 mm 4 m/S 769 mmHg 80%
    11:00 +10°C° 0.1 mm 4 m/S 769 mmHg 76%
    12:00 +10°C° 0.1 mm 4 m/S 769 mmHg 71%
    13:00 +9°C° 0 mm 5 m/S 769 mmHg 71%
    14:00 +9°C° 0 mm 5 m/S 769 mmHg 70%
    15:00 +9°C° 0 mm 5 m/S 769 mmHg 69%
    16:00 +9°C° 0 mm 5 m/S 769 mmHg 71%
    17:00 +9°C° 0 mm 5 m/S 769 mmHg 73%
    18:00 +8°C° 0 mm 5 m/S 769 mmHg 74%
    19:00 +8°C° 0 mm 4 m/S 769 mmHg 76%
    20:00 +8°C° 0 mm 4 m/S 769 mmHg 77%
    21:00 +7°C° 0 mm 4 m/S 770 mmHg 79%
    22:00 +8°C° 0 mm 3 m/S 770 mmHg 79%
    23:00 +8°C° 0 mm 3 m/S 769 mmHg 79%

    Morgen, 21 März, Donnerstag

    Zeit Temperatur Niederschläge Wind Luftdruck Luftfeuchtigkeit
    00:00 +8°C° 0 mm 3 m/S 769 mmHg 80%
    01:00 +8°C° 0 mm 3 m/S 769 mmHg 80%
    02:00 +8°C° 0 mm 2 m/S 769 mmHg 81%
    03:00 +8°C° 0 mm 2 m/S 769 mmHg 81%
    04:00 +8°C° 0 mm 2 m/S 769 mmHg 81%
    05:00 +8°C° 0 mm 2 m/S 769 mmHg 81%
    06:00 +8°C° 0 mm 2 m/S 769 mmHg 82%
    07:00 +9°C° 0 mm 2 m/S 769 mmHg 80%
    08:00 +9°C° 0 mm 2 m/S 770 mmHg 77%
    09:00 +10°C° 0 mm 2 m/S 770 mmHg 75%
    10:00 +11°C° 0 mm 3 m/S 770 mmHg 73%
    11:00 +11°C° 0 mm 3 m/S 769 mmHg 70%
    12:00 +12°C° 0 mm 3 m/S 769 mmHg 68%
    13:00 +12°C° 0 mm 3 m/S 769 mmHg 67%
    14:00 +13°C° 0 mm 4 m/S 769 mmHg 66%
    15:00 +13°C° 0 mm 4 m/S 768 mmHg 65%
    16:00 +12°C° 0 mm 5 m/S 768 mmHg 69%
    17:00 +10°C° 0 mm 5 m/S 768 mmHg 73%
    18:00 +10°C° 0 mm 5 m/S 768 mmHg 77%
    19:00 +9°C° 0 mm 5 m/S 768 mmHg 79%
    20:00 +9°C° 0 mm 5 m/S 769 mmHg 81%
    21:00 +9°C° 0 mm 5 m/S 769 mmHg 83%
    22:00 +10°C° 0 mm 4 m/S 769 mmHg 84%
    23:00 +10°C° 0 mm 4 m/S 769 mmHg 85%

    übermorgen, 22 März, Freitag

    Zeit Temperatur Niederschläge Wind Luftdruck Luftfeuchtigkeit
    00:00 +10°C° 0 mm 4 m/S 768 mmHg 87%
    01:00 +8°C° 0 mm 4 m/S 768 mmHg 87%
    02:00 +8°C° 0 mm 4 m/S 768 mmHg 88%
    03:00 +8°C° 0 mm 4 m/S 768 mmHg 88%
    04:00 +8°C° 0 mm 4 m/S 768 mmHg 88%
    05:00 +9°C° 0 mm 3 m/S 768 mmHg 88%
    06:00 +9°C° 0 mm 3 m/S 768 mmHg 88%
    07:00 +10°C° 0 mm 3 m/S 768 mmHg 82%
    08:00 +12°C° 0 mm 3 m/S 768 mmHg 76%
    09:00 +13°C° 0 mm 3 m/S 769 mmHg 69%
    10:00 +14°C° 0 mm 3 m/S 768 mmHg 66%
    11:00 +14°C° 0 mm 3 m/S 768 mmHg 63%
    12:00 +16°C° 0 mm 3 m/S 768 mmHg 60%
    13:00 +16°C° 0 mm 3 m/S 767 mmHg 61%
    14:00 +15°C° 0 mm 4 m/S 767 mmHg 61%
    15:00 +15°C° 0 mm 5 m/S 766 mmHg 62%
    16:00 +14°C° 0 mm 5 m/S 766 mmHg 66%
    17:00 +13°C° 0 mm 5 m/S 766 mmHg 70%
    18:00 +12°C° 0 mm 5 m/S 766 mmHg 74%
    19:00 +12°C° 0 mm 5 m/S 766 mmHg 76%
    20:00 +11°C° 0 mm 4 m/S 767 mmHg 78%
    21:00 +11°C° 0 mm 4 m/S 767 mmHg 80%
    22:00 +11°C° 0 mm 3 m/S 767 mmHg 80%
    23:00 +11°C° 0 mm 3 m/S 767 mmHg 80%

    23 März, Samstag

    Zeit Temperatur Niederschläge Wind Luftdruck Luftfeuchtigkeit
    00:00 +12°C° 0 mm 2 m/S 767 mmHg 80%
    01:00 +11°C° 0.7 mm 4 m/S 767 mmHg 82%
    02:00 +9°C° 0.7 mm 6 m/S 768 mmHg 84%
    03:00 +7°C° 0.7 mm 8 m/S 768 mmHg 87%
    04:00 +6°C° 1.6 mm 7 m/S 768 mmHg 86%
    05:00 +6°C° 1.6 mm 7 m/S 769 mmHg 85%
    06:00 +5°C° 1.6 mm 7 m/S 769 mmHg 85%
    07:00 +7°C° 0.4 mm 6 m/S 769 mmHg 83%
    08:00 +7°C° 0.4 mm 5 m/S 770 mmHg 81%
    09:00 +8°C° 0.4 mm 3 m/S 770 mmHg 79%
    10:00 +9°C° 0 mm 3 m/S 769 mmHg 74%
    11:00 +10°C° 0 mm 2 m/S 769 mmHg 69%
    12:00 +12°C° 0 mm 2 m/S 768 mmHg 64%
    13:00 +12°C° 0 mm 3 m/S 767 mmHg 64%
    14:00 +12°C° 0 mm 3 m/S 766 mmHg 65%
    15:00 +12°C° 0 mm 4 m/S 766 mmHg 65%
    16:00 +11°C° 0 mm 4 m/S 765 mmHg 69%
    17:00 +11°C° 0 mm 4 m/S 765 mmHg 73%
    18:00 +10°C° 0 mm 4 m/S 764 mmHg 77%
    19:00 +10°C° 0 mm 4 m/S 764 mmHg 79%
    20:00 +8°C° 0 mm 4 m/S 764 mmHg 82%
    21:00 +8°C° 0 mm 5 m/S 764 mmHg 85%
    22:00 +8°C° 0 mm 4 m/S 764 mmHg 87%
    23:00 +9°C° 0 mm 3 m/S 764 mmHg 89%

    24 März, Sonntag

    Zeit Temperatur Niederschläge Wind Luftdruck Luftfeuchtigkeit
    00:00 +8°C° 0 mm 3 m/S 763 mmHg 92%
    01:00 +8°C° 0 mm 3 m/S 763 mmHg 88%
    02:00 +8°C° 0 mm 4 m/S 764 mmHg 83%
    03:00 +8°C° 0 mm 4 m/S 764 mmHg 79%
    04:00 +8°C° 0 mm 5 m/S 764 mmHg 74%
    05:00 +8°C° 0 mm 6 m/S 765 mmHg 69%
    06:00 +8°C° 0 mm 7 m/S 766 mmHg 63%
    07:00 +8°C° 0.1 mm 6 m/S 766 mmHg 64%
    08:00 +8°C° 0.1 mm 5 m/S 767 mmHg 65%
    09:00 +8°C° 0.1 mm 5 m/S 768 mmHg 66%
    10:00 +11°C° 0 mm 4 m/S 768 mmHg 59%
    11:00 +12°C° 0 mm 4 m/S 768 mmHg 52%
    12:00 +13°C° 0 mm 3 m/S 768 mmHg 45%
    13:00 +12°C° 0 mm 4 m/S 768 mmHg 47%
    14:00 +12°C° 0 mm 5 m/S 768 mmHg 49%
    15:00 +10°C° 0 mm 6 m/S 767 mmHg 50%
    16:00 +10°C° 0 mm 6 m/S 767 mmHg 53%
    17:00 +9°C° 0 mm 6 m/S 767 mmHg 56%
    18:00 +9°C° 0 mm 6 m/S 767 mmHg 59%
    19:00 +9°C° 0 mm 7 m/S 767 mmHg 63%
    20:00 +8°C° 0 mm 7 m/S 767 mmHg 67%
    21:00 +7°C° 0 mm 8 m/S 768 mmHg 71%
    22:00 +7°C° 0 mm 8 m/S 767 mmHg 71%
    23:00 +8°C° 0 mm 7 m/S 767 mmHg 72%

    25 März, Montag

    Zeit Temperatur Niederschläge Wind Luftdruck Luftfeuchtigkeit
    00:00 +8°C° 0 mm 7 m/S 767 mmHg 72%
    01:00 +8°C° 0 mm 6 m/S 766 mmHg 72%
    02:00 +8°C° 0 mm 5 m/S 766 mmHg 71%
    03:00 +8°C° 0 mm 4 m/S 766 mmHg 71%
    04:00 +7°C° 0 mm 4 m/S 766 mmHg 72%
    05:00 +7°C° 0 mm 4 m/S 766 mmHg 72%
    06:00 +7°C° 0 mm 3 m/S 766 mmHg 73%
    07:00 +9°C° 0 mm 3 m/S 766 mmHg 67%
    08:00 +10°C° 0 mm 4 m/S 767 mmHg 60%
    09:00 +12°C° 0 mm 4 m/S 767 mmHg 54%
    10:00 +13°C° 0 mm 3 m/S 767 mmHg 51%
    11:00 +15°C° 0 mm 2 m/S 767 mmHg 48%
    12:00 +16°C° 0 mm 2 m/S 767 mmHg 45%
    13:00 +16°C° 0 mm 2 m/S 766 mmHg 46%
    14:00 +16°C° 0 mm 3 m/S 766 mmHg 47%
    15:00 +15°C° 0 mm 4 m/S 766 mmHg 49%
    16:00 +14°C° 0 mm 4 m/S 767 mmHg 54%
    17:00 +13°C° 0 mm 4 m/S 767 mmHg 59%
    18:00 +11°C° 0 mm 3 m/S 767 mmHg 65%
    19:00 +11°C° 0 mm 3 m/S 768 mmHg 68%
    20:00 +11°C° 0 mm 3 m/S 768 mmHg 71%
    21:00 +10°C° 0 mm 3 m/S 769 mmHg 74%
    22:00 +10°C° 0 mm 3 m/S 769 mmHg 76%
    23:00 +10°C° 0 mm 2 m/S 769 mmHg 77%
    Mehr zeigen